Tracking 19817 objects as of 19-Aug-2019
HD Live streaming from Space Station
objects crossing your sky now

SL-14 R/B

Track SL-14 R/B now!
10-day predictions


NORAD ID: 15370
Int'l Code: 1984-111B
Perigee: 610.9 km
Apogee: 638.8 km
Inclination: 82.5 °
Period: 97.1 minutes
Semi major axis: 6995 km
RCS: 4.088 m2 (large)
Launch date: October 18, 1984
Source: Commonwealth of Independent States (former USSR) (CIS)
Launch site: PLESETSK MISSILE AND SPACE COMPLEX (PKMTR)

Note: This is a ROCKET BODY
aabbcc
Your satellite tracking list
Your tracking list is empty




NASA's NSSDC Master Catalog

Two Line Element Set (TLE):
1 15370U 84111B   19230.84244554 +.00000049 +00000-0 +30737-5 0  9990
2 15370 082.5193 344.3883 0019911 323.8745 036.1124 14.83694062860602
Source of the keplerian elements: AFSPC